Вернуться в каталог

FREGAT DEB

LostUNKNOWN
NORAD 45965·DEBRIS·🇷🇺 Russia

Запущен Jul 18, 2011 с Baikonur Cosmodrome

Loading…

Ближайшие Пролёты (ближайшие 24 часа)

TLE

УстаревшееSource: Space-Track

Эпоха: Jul 21, 2021, 12:31 UTC

1 45965U 11037FW  21202.52185793 -.00000005  00000-0  49372-3 0  9992
2 45965  50.9125 265.3193 0635023 335.6577  21.5439 12.11097117 43390

Отслеживайте FREGAT DEB в реальном времени с AllMySat

Download on the App Store